{"data":{"norad_id":60942,"intl_designator":"2024-155U","name":"STARLINK-32184","alt_names":[],"object_type":"PAYLOAD","status":"ACTIVE","operator":null,"country":"US","launch_date":"2024-08-31","launch_site_code":"AFWTR","launch_vehicle":null,"mission":null,"orbit_class":"UNKNOWN","rcs_meters":null,"size_class":null,"mass_kg":null,"dimensions":null,"purposes":["comms"],"wikipedia_slug":null,"has_3d_model":false,"image_url":null,"decayed_at":null,"tle_current":{"epoch":"2026-09-20T10:14:44.719008Z","epoch_age_seconds":195174,"freshness":"STALE","line1":"1 60942U 24155U   26263.42690647  .00000044  00000+0  12443-4 0  9990","line2":"2 60942  53.1595 301.7582 0001343  82.8675 277.2481 15.34387919116159","mean_motion":15.34387919,"eccentricity":0.0001343,"inclination_deg":53.1595,"raan_deg":301.7582,"arg_perigee_deg":82.8675,"mean_anomaly_deg":277.2481,"bstar":1.2443e-5,"rev_number":11615,"period_min":93.848496991457,"perigee_km":461.82041805402,"apogee_km":463.6578773873,"semimajor_km":6840.8761477207,"source":"CELESTRAK","updated_at":"2026-09-22T09:00:49.293242Z"}}}